[[{"header":{"parameterUnit":"m.s-1","parameterCategory":2,"la1":30.2991,"la2":30.254,"lo1":-89.0895,"lo2":-89.0444,"dy":0.0017,"dx":0.0017,"nx":28,"ny":28,"refTime":"2025-03-17T21:00:00:Z","depth":"0","parameterNumber":2,"parameterNumberName":"U-component_of_CURRENTS"},"data":[0,0,0,0,0,0,0,0,0,0,0,0,0,0,0,0,0,0,0,0,0,0,0,0,0,0,0,0,0,0,0,0,0,0,0,0,0,0,0,0,0,0,0,0,0,0,0,0,0,0,0,0,0,0,0,0,0,0,-0.3677,-0.3679,0,-0.375,-0.375,-0.3751,-0.376,-0.376,-0.376,-0.3759,-0.3731,-0.373,-0.3729,0,0,0,0,0,0,0,0,0,0,0,0,0,-0.3549,-0.3551,-0.3677,-0.3679,-0.368,-0.375,-0.375,-0.3751,-0.376,-0.376,-0.376,-0.3759,-0.3731,-0.373,-0.3729,0,0,0,0,0,0,0,0,0,0,0,0,0,-0.3606,-0.3552,-0.3677,-0.3697,-0.37,-0.375,-0.375,-0.3751,-0.376,-0.376,-0.376,-0.3759,-0.3731,-0.373,-0.3729,-0.3729,0,0,-0.3726,-0.3726,0,0,0,0,0,0,0,0,-0.3603,-0.361,-0.3693,-0.3696,-0.37,-0.3751,-0.3695,-0.3741,-0.376,-0.3731,-0.3759,-0.3759,-0.3732,-0.3731,-0.3738,-0.3727,-0.3726,-0.3726,-0.3726,-0.3725,-0.3725,0,0,0,0,0,0,0,-0.3599,-0.3607,-0.37,-0.3695,-0.3699,-0.3705,-0.3712,-0.3704,-0.3726,-0.3734,-0.3736,-0.3754,-0.3732,-0.3739,-0.3737,-0.3726,-0.3726,-0.3725,-0.3725,-0.3725,-0.3754,-0.3756,0,0,0,0,0,0,-0.3602,-0.3604,-0.3698,-0.3703,-0.3656,-0.3707,-0.3715,-0.373,-0.3728,-0.373,-0.3754,-0.3754,-0.3741,-0.3739,-0.3736,-0.3745,-0.3725,-0.3724,-0.3724,-0.3753,-0.3755,-0.3756,0,0,0,0,0,0,-0.3599,-0.361,-0.3695,-0.3659,-0.3671,-0.371,-0.3727,-0.3732,-0.3748,-0.3745,-0.3744,-0.3767,-0.3741,-0.3738,-0.3742,-0.3744,-0.3724,-0.3723,-0.3752,-0.3754,-0.3755,-0.3756,0,0,0,0,0,0,-0.3595,-0.3608,-0.3615,-0.366,-0.3674,-0.3741,-0.3728,-0.3733,-0.3762,-0.3763,-0.3756,-0.3753,-0.374,-0.3743,-0.3741,-0.3742,-0.3723,-0.375,-0.3752,-0.3755,-0.3755,-0.3758,-0.3761,0,0,0,0,0,-0.359,-0.3614,-0.3614,-0.3626,-0.3683,-0.3743,-0.375,-0.3772,-0.3763,-0.3782,-0.3772,-0.3754,-0.3758,-0.3743,-0.374,-0.3741,-0.3749,-0.3752,-0.3755,-0.3753,-0.3758,-0.3761,0,0,0,0,0,0,-0.3567,-0.3619,-0.362,-0.3658,-0.3701,-0.3747,-0.3764,-0.3779,-0.3788,-0.3778,-0.3764,-0.3762,-0.3773,-0.3763,-0.3748,-0.3763,-0.3753,-0.3755,-0.3753,-0.3757,-0.376,-0.3734,-0.3722,0,0,0,0,0,-0.3564,-0.358,-0.3642,-0.3662,-0.3689,-0.3723,-0.3746,-0.3766,-0.3786,-0.379,-0.3787,-0.3782,-0.3783,-0.3774,-0.3782,-0.3777,-0.3711,-0.3781,-0.3785,-0.3787,-0.3768,-0.3668,-0.3658,-0.3766,-0.3766,-0.3766,0,0,-0.3559,-0.3585,-0.3596,-0.3656,-0.3682,-0.3718,-0.3735,-0.3778,-0.3792,-0.3783,-0.3789,-0.3798,-0.3791,-0.3796,-0.3799,-0.3783,-0.3724,-0.3791,-0.3793,-0.3771,-0.367,-0.3658,-0.3648,-0.3768,-0.3768,-0.3767,0,0,-0.3548,-0.3583,-0.3591,-0.3634,-0.3687,-0.3717,-0.3734,-0.3789,-0.3798,-0.3816,-0.3815,-0.3816,-0.3824,-0.3811,-0.3804,-0.3828,-0.3756,-0.385,-0.3823,-0.3727,-0.3716,-0.3705,-0.3602,-0.3581,-0.3836,-0.3836,-0.3836,0,-0.3528,-0.355,-0.3605,-0.3631,-0.3653,-0.3716,-0.3733,-0.3768,-0.3811,-0.3798,-0.3819,-0.3812,-0.382,-0.3792,-0.3818,-0.3829,-0.3761,-0.3803,-0.3725,-0.3713,-0.3701,-0.3598,-0.3576,-0.3836,-0.3836,-0.3836,-0.3836,0,-0.3523,-0.3549,-0.3565,-0.3602,-0.3643,-0.3674,-0.3737,-0.3762,-0.3778,-0.3791,-0.3786,-0.3802,-0.3776,-0.3807,-0.3821,-0.3764,-0.3739,-0.3746,-0.37,-0.3689,-0.3583,-0.3559,-0.3837,-0.3836,-0.3836,-0.3836,0,0,-0.3427,-0.3534,-0.3533,-0.3522,-0.3626,-0.3632,-0.3685,-0.371,-0.3678,-0.3741,-0.3677,-0.3738,-0.3734,-0.3729,-0.3748,-0.3696,-0.3581,-0.3694,-0.3688,-0.3565,-0.3349,-0.3305,-0.3275,-0.3566,-0.3562,-0.3559,-0.3303,0,-0.3383,-0.3405,-0.3485,-0.348,-0.3485,-0.3571,-0.359,-0.3623,-0.3646,-0.361,-0.3637,-0.3604,-0.3707,-0.3675,-0.3648,-0.3604,-0.3521,-0.3649,-0.34,-0.3392,-0.3333,-0.3247,-0.3132,-0.2892,-0.3279,-0.3275,-0.3272,0,-0.3324,-0.3338,-0.3343,-0.3365,-0.3373,-0.3387,-0.3376,-0.3406,-0.3424,-0.3432,-0.3437,-0.346,-0.3434,-0.3496,-0.3393,-0.3469,-0.3401,-0.3368,-0.3356,-0.3293,-0.3304,-0.297,-0.2834,-0.2839,-0.3236,-0.3239,-0.3241,0,-0.3158,-0.3215,-0.3192,-0.3212,-0.3277,-0.3263,-0.3285,-0.3327,-0.3313,-0.3298,-0.3265,-0.3266,-0.3224,-0.318,-0.3202,-0.3256,-0.3054,-0.3097,-0.2981,-0.2977,-0.2817,-0.2806,-0.2628,-0.2951,-0.2951,-0.2952,-0.2953,0,-0.3054,-0.3017,-0.31,-0.3077,-0.3,-0.3104,-0.303,-0.3063,-0.3085,-0.3043,-0.3139,-0.3098,-0.3143,-0.3088,-0.3093,-0.2972,-0.2952,-0.2933,-0.2891,-0.2819,-0.2811,-0.2763,-0.2816,-0.2942,-0.2944,-0.2946,-0.2948,0,-0.2854,-0.2942,-0.2878,-0.2918,-0.2921,-0.2845,-0.288,-0.2844,-0.2895,-0.2838,-0.2829,-0.2904,-0.2855,-0.289,-0.2791,-0.2796,-0.2649,-0.2655,-0.2581,-0.2536,-0.2446,-0.2504,-0.2264,-0.2201,-0.2437,-0.2434,-0.2432,0,-0.2747,-0.2706,-0.2707,-0.2679,-0.2689,-0.2639,-0.2632,-0.271,-0.2702,-0.2734,-0.2689,-0.2664,-0.2642,-0.2514,-0.2504,-0.2415,-0.2483,-0.2257,-0.2347,-0.238,-0.2413,-0.2474,-0.2444,-0.2123,-0.2118,-0.2114,-0.2111,0,-0.2499,-0.2512,-0.248,-0.2438,-0.2413,-0.2375,-0.2382,-0.2356,-0.246,-0.2448,-0.2437,-0.2418,-0.2349,-0.2251,-0.2183,-0.2142,-0.2215,-0.2174,-0.2195,-0.2129,-0.2186,-0.2127,-0.2374,-0.2077,-0.208,-0.2083,-0.2085,-0.2086,-0.229,-0.2219,-0.222,-0.2159,-0.215,-0.2125,-0.2053,-0.2125,-0.2098,-0.2098,-0.2172,-0.2112,-0.2081,-0.198,-0.194,-0.1848,-0.1935,-0.1817,-0.187,-0.1918,-0.1901,-0.2086,-0.1778,-0.178,-0.1781,-0.1782,-0.1783,0,-0.2036,-0.2019,-0.1957,-0.1907,-0.1845,-0.1911,-0.1896,-0.1843,-0.1804,-0.1853,-0.184,-0.1791,-0.1702,-0.1705,-0.1644,-0.158,-0.157,-0.1566,-0.1616,-0.159,-0.1698,-0.1735,-0.1418,-0.1418,-0.1418,-0.1418,-0.1418,-0.1418,-0.191,-0.1797,-0.1793,-0.163,-0.1607,-0.1479,-0.1445,-0.1428,-0.1428,-0.1383,-0.1385,-0.1403,-0.1468,-0.1625,-0.1562,-0.1491,-0.1495,-0.1433,-0.1494,-0.1605,-0.1634,-0.1662,-0.1707,-0.139,-0.139,-0.1312,-0.1312,-0.1312]},{"header":{"parameterUnit":"m.s-1","parameterCategory":2,"la1":30.2991,"la2":30.254,"lo1":-89.0895,"lo2":-89.0444,"dy":0.0017,"dx":0.0017,"nx":28,"ny":28,"refTime":"2025-03-17T21:00:00:Z","depth":"0","parameterNumber":3,"parameterNumberName":"V-component_of_CURRENTS"},"data":[0,0,0,0,0,0,0,0,0,0,0,0,0,0,0,0,0,0,0,0,0,0,0,0,0,0,0,0,0,0,0,0,0,0,0,0,0,0,0,0,0,0,0,0,0,0,0,0,0,0,0,0,0,0,0,0,0,0,-0.0001,0.0001,0,0.0239,0.0242,0.0244,0.0405,0.0406,0.0407,0.0409,0.0667,0.0672,0.0678,0,0,0,0,0,0,0,0,0,0,0,0,0,-0.02,-0.0198,-0.0002,0.0002,0.0005,0.0239,0.0242,0.0245,0.0405,0.0406,0.0408,0.0409,0.0665,0.0672,0.0678,0,0,0,0,0,0,0,0,0,0,0,0,0,-0.0054,-0.0197,-0.0002,0.0114,0.0127,0.0238,0.0242,0.0246,0.0404,0.0406,0.0408,0.041,0.0663,0.0671,0.0679,0.0694,0,0,0.0705,0.0709,0,0,0,0,0,0,0,0,-0.0063,-0.0047,0.0094,0.0106,0.0121,0.0295,0.0267,0.0397,0.0404,0.0297,0.0409,0.0411,0.0544,0.0562,0.0601,0.0706,0.0718,0.0706,0.0711,0.0715,0.0718,0,0,0,0,0,0,0,-0.0073,-0.0056,0.0092,0.0097,0.0114,0.0196,0.0218,0.0293,0.0406,0.0307,0.0319,0.0348,0.0551,0.0592,0.0608,0.0721,0.0706,0.0714,0.0719,0.0722,0.0937,0.0937,0,0,0,0,0,0,-0.0108,-0.0066,0.0084,0.0099,0.0034,0.0198,0.0222,0.0236,0.0405,0.0433,0.0346,0.0355,0.0576,0.0598,0.0618,0.0682,0.0715,0.0723,0.0728,0.0936,0.0937,0.0938,0,0,0,0,0,0,-0.0113,-0.0097,0.0075,0.0025,0.0053,0.0198,0.0214,0.024,0.0289,0.0435,0.0464,0.0369,0.0579,0.0606,0.0674,0.0692,0.0727,0.0735,0.0936,0.0937,0.0937,0.0788,0,0,0,0,0,0,-0.012,-0.0101,-0.0107,0.0021,0.0054,0.0132,0.0213,0.0243,0.0304,0.0317,0.0464,0.049,0.0582,0.066,0.0683,0.0705,0.0741,0.0935,0.0936,0.0937,0.0792,0.0784,0.0776,0,0,0,0,0,-0.0128,-0.0143,-0.0109,-0.009,0.0042,0.0132,0.0155,0.0266,0.0302,0.0317,0.0406,0.0486,0.0685,0.0666,0.0693,0.0718,0.0934,0.0936,0.0937,0.0796,0.0785,0.0776,0,0,0,0,0,0,-0.0221,-0.0124,-0.0085,-0.0066,0.0021,0.016,0.018,0.0251,0.0333,0.0339,0.0472,0.0504,0.0581,0.0661,0.0637,0.0787,0.0832,0.0838,0.0716,0.0707,0.0699,0.0674,0.0748,0,0,0,0,0,-0.0252,-0.0246,-0.0127,-0.0115,-0.0082,0.0041,0.0089,0.0161,0.0255,0.0295,0.0397,0.0507,0.0606,0.0659,0.0754,0.0814,0.0854,0.0857,0.0849,0.0841,0.0841,0.0894,0.089,0.0942,0.0942,0.0942,0,0,-0.0281,-0.0231,-0.0223,-0.0137,-0.0066,-0.0023,0.0074,0.0132,0.0177,0.0306,0.0377,0.0474,0.0613,0.0692,0.0736,0.0761,0.0841,0.0843,0.0835,0.084,0.0895,0.0889,0.0885,0.0943,0.0943,0.0942,0,0,-0.0348,-0.0302,-0.0319,-0.0256,-0.0165,-0.0084,-0.0076,0.0051,0.0114,0.0186,0.0299,0.0388,0.0535,0.064,0.0712,0.0713,0.0792,0.0763,0.0708,0.0757,0.0752,0.0749,0.0746,0.0744,0.0764,0.0763,0.0763,0,-0.0394,-0.0386,-0.0306,-0.0298,-0.0249,-0.0123,-0.0109,-0.003,0.0105,0.0153,0.0188,0.0411,0.0514,0.0633,0.0644,0.0695,0.0718,0.0723,0.0742,0.074,0.0738,0.0737,0.0736,0.0756,0.0757,0.0758,0.0758,0,-0.0459,-0.0445,-0.045,-0.0399,-0.0341,-0.031,-0.0188,-0.0131,-0.0047,0.0049,0.0168,0.0303,0.0439,0.0497,0.0573,0.0642,0.0655,0.0713,0.075,0.0723,0.0725,0.0726,0.0746,0.0749,0.0751,0.0753,0,0,-0.0575,-0.0512,-0.0513,-0.0495,-0.0389,-0.0344,-0.0286,-0.0178,-0.0136,-0.0006,0.0056,0.0235,0.0313,0.04,0.0515,0.0571,0.0566,0.063,0.0636,0.0598,0.0633,0.0696,0.0704,0.0622,0.0622,0.0623,0.0618,0,-0.0647,-0.0663,-0.06,-0.0586,-0.057,-0.0444,-0.0395,-0.0285,-0.0179,-0.0096,0.0064,0.0166,0.0278,0.0334,0.0407,0.0537,0.0572,0.0559,0.0693,0.0696,0.0732,0.071,0.0763,0.077,0.062,0.062,0.0621,0,-0.0727,-0.072,-0.0736,-0.0663,-0.0646,-0.0619,-0.0511,-0.0448,-0.0298,-0.0219,-0.0091,0.0035,0.0162,0.0243,0.0422,0.0407,0.0501,0.0591,0.0594,0.0714,0.0765,0.0789,0.078,0.0947,0.0624,0.0624,0.0623,0,-0.0835,-0.0806,-0.0823,-0.0797,-0.0705,-0.0687,-0.0628,-0.0492,-0.0428,-0.0301,-0.0248,-0.0081,0.0008,0.015,0.0369,0.0378,0.0545,0.0578,0.0716,0.0719,0.0825,0.0838,0.0978,0.0678,0.0678,0.0678,0.0678,0,-0.0925,-0.0931,-0.088,-0.0883,-0.0881,-0.0788,-0.0758,-0.0672,-0.056,-0.0483,-0.0325,-0.0226,-0.0006,0.0146,0.0308,0.0524,0.0497,0.0698,0.0734,0.0772,0.078,0.0984,0.1042,0.0678,0.0678,0.0678,0.0678,0,-0.1023,-0.1001,-0.1005,-0.0948,-0.0932,-0.0927,-0.0834,-0.0801,-0.0695,-0.06,-0.0564,-0.0348,-0.0143,0.008,0.0314,0.0457,0.0748,0.073,0.0737,0.0777,0.1044,0.1091,0.1246,0.1344,0.0834,0.0836,0.0837,0,-0.107,-0.1089,-0.1061,-0.1064,-0.1041,-0.1015,-0.0988,-0.088,-0.0826,-0.064,-0.0598,-0.0389,-0.0174,0.0168,0.0442,0.0697,0.0844,0.0877,0.0926,0.1066,0.1144,0.1169,0.1241,0.0975,0.0978,0.098,0.0981,0,-0.1132,-0.1128,-0.1128,-0.1142,-0.1137,-0.1113,-0.1065,-0.1043,-0.0896,-0.0776,-0.0578,-0.0403,-0.005,0.0304,0.063,0.0791,0.0997,0.0926,0.1091,0.1284,0.1303,0.1412,0.0928,0.0999,0.0998,0.0996,0.0995,0.0995,-0.116,-0.1178,-0.1183,-0.1191,-0.1196,-0.1188,-0.1158,-0.1063,-0.0947,-0.068,-0.0563,-0.0187,0.0218,0.0711,0.0875,0.1232,0.1178,0.1351,0.139,0.1398,0.1528,0.1063,0.118,0.118,0.1179,0.1179,0.1178,0,-0.1174,-0.1193,-0.1216,-0.1229,-0.1248,-0.123,-0.1178,-0.1091,-0.0922,-0.0573,-0.0312,0.0264,0.0692,0.1066,0.151,0.1699,0.1727,0.1786,0.1844,0.1894,0.1507,0.1557,0.1741,0.1741,0.1741,0.1741,0.174,0.174,-0.1178,-0.1206,-0.122,-0.1256,-0.1269,-0.1246,-0.1209,-0.1029,-0.0765,-0.0186,0.0278,0.0598,0.1048,0.1682,0.2105,0.2135,0.2302,0.2261,0.235,0.2101,0.2064,0.2028,0.2093,0.2386,0.2387,0.2743,0.2747,0.275]}],[{"header":{"parameterUnit":"m.s-1","parameterCategory":2,"la1":30.2991,"la2":30.254,"lo1":-89.0895,"lo2":-89.0444,"dy":0.0017,"dx":0.0017,"nx":28,"ny":28,"refTime":"2025-03-17T21:00:00:Z","depth":"2","parameterNumber":2,"parameterNumberName":"U-component_of_CURRENTS"},"data":[0,0,0,0,0,0,0,0,0,0,0,0,0,0,0,0,0,0,0,0,0,0,0,0,0,0,0,0,0,0,0,0,0,0,0,0,0,0,0,0,0,0,0,0,0,0,0,0,0,0,0,0,0,0,0,0,0,0,-0.3025,-0.3026,0,-0.3115,-0.3116,-0.3117,-0.3178,-0.3178,-0.3178,-0.3178,-0.317,-0.317,-0.3169,0,0,0,0,0,0,0,0,0,0,0,0,0,-0.2917,-0.2919,-0.3025,-0.3026,-0.3027,-0.3115,-0.3116,-0.3118,-0.3178,-0.3178,-0.3178,-0.3178,-0.317,-0.317,-0.3169,0,0,0,0,0,0,0,0,0,0,0,0,0,-0.2984,-0.292,-0.3025,-0.3065,-0.307,-0.3115,-0.3116,-0.3118,-0.3178,-0.3178,-0.3178,-0.3178,-0.317,-0.317,-0.3169,-0.316,0,0,-0.3167,-0.3167,0,0,0,0,0,0,0,0,-0.298,-0.2988,-0.3059,-0.3063,-0.3068,-0.3133,-0.3075,-0.3126,-0.3178,-0.3139,-0.3178,-0.3178,-0.3147,-0.3148,-0.3169,-0.316,-0.316,-0.3167,-0.3167,-0.3167,-0.3167,0,0,0,0,0,0,0,-0.2975,-0.2985,-0.3063,-0.3059,-0.3065,-0.3083,-0.3093,-0.3086,-0.314,-0.3143,-0.3147,-0.3152,-0.3149,-0.317,-0.3169,-0.3159,-0.3167,-0.3167,-0.3166,-0.3166,-0.3229,-0.3231,0,0,0,0,0,0,-0.2958,-0.298,-0.306,-0.3066,-0.3021,-0.3085,-0.3096,-0.3114,-0.3143,-0.3148,-0.3152,-0.3155,-0.3171,-0.317,-0.3169,-0.3197,-0.3167,-0.3166,-0.3166,-0.3227,-0.3229,-0.3232,0,0,0,0,0,0,-0.2956,-0.2965,-0.3057,-0.3022,-0.3035,-0.3086,-0.3106,-0.3115,-0.3151,-0.3151,-0.3154,-0.3178,-0.3171,-0.317,-0.3188,-0.3195,-0.3166,-0.3165,-0.3225,-0.3228,-0.3231,-0.3228,0,0,0,0,0,0,-0.2953,-0.2964,-0.2972,-0.3021,-0.3036,-0.3109,-0.3106,-0.3117,-0.3152,-0.3157,-0.3174,-0.3173,-0.3171,-0.3189,-0.3188,-0.3194,-0.3165,-0.3222,-0.3226,-0.323,-0.3226,-0.3231,-0.3235,0,0,0,0,0,-0.2949,-0.2974,-0.2972,-0.2982,-0.3046,-0.311,-0.3121,-0.3158,-0.3153,-0.3187,-0.3192,-0.3173,-0.3213,-0.319,-0.3188,-0.3194,-0.322,-0.3225,-0.3229,-0.3224,-0.323,-0.3235,0,0,0,0,0,0,-0.2914,-0.2983,-0.2983,-0.3021,-0.3066,-0.312,-0.3148,-0.3163,-0.3197,-0.3197,-0.3188,-0.3189,-0.3213,-0.3212,-0.3187,-0.3231,-0.3217,-0.3222,-0.3214,-0.322,-0.3224,-0.3208,-0.3164,0,0,0,0,0,-0.2909,-0.2959,-0.3007,-0.3035,-0.3059,-0.3099,-0.3126,-0.3156,-0.3188,-0.3205,-0.3218,-0.3228,-0.323,-0.323,-0.3248,-0.3256,-0.3203,-0.3267,-0.3272,-0.3275,-0.3266,-0.3193,-0.3188,-0.3246,-0.3246,-0.3246,0,0,-0.2911,-0.2942,-0.2976,-0.3032,-0.3066,-0.3105,-0.3119,-0.3175,-0.3201,-0.3193,-0.3238,-0.3246,-0.324,-0.3264,-0.3274,-0.3259,-0.3232,-0.3281,-0.3283,-0.3272,-0.3197,-0.319,-0.3184,-0.325,-0.3249,-0.3248,0,0,-0.2922,-0.2959,-0.2998,-0.3039,-0.3091,-0.3123,-0.3139,-0.3207,-0.3237,-0.3277,-0.3273,-0.3291,-0.3311,-0.3308,-0.3301,-0.3341,-0.3265,-0.3352,-0.3345,-0.3275,-0.3268,-0.3261,-0.3172,-0.3158,-0.3345,-0.3345,-0.3345,0,-0.2914,-0.2946,-0.3017,-0.3048,-0.3069,-0.3128,-0.3153,-0.32,-0.3266,-0.3259,-0.3299,-0.3314,-0.333,-0.3303,-0.3336,-0.3347,-0.3279,-0.3314,-0.3274,-0.3266,-0.3259,-0.317,-0.3153,-0.3345,-0.3345,-0.3345,-0.3345,0,-0.2926,-0.2966,-0.2992,-0.3047,-0.3093,-0.3131,-0.3195,-0.3243,-0.3277,-0.3287,-0.3305,-0.3346,-0.3336,-0.3362,-0.3361,-0.3322,-0.3281,-0.3287,-0.3243,-0.3252,-0.3159,-0.3142,-0.3346,-0.3346,-0.3346,-0.3346,0,0,-0.2865,-0.2981,-0.2986,-0.2995,-0.3088,-0.3115,-0.318,-0.3208,-0.3192,-0.3281,-0.3246,-0.3311,-0.3312,-0.3309,-0.332,-0.3287,-0.32,-0.3265,-0.3261,-0.3147,-0.3006,-0.295,-0.2925,-0.3175,-0.3172,-0.317,-0.2954,0,-0.2836,-0.2882,-0.2956,-0.299,-0.3009,-0.3092,-0.3128,-0.3167,-0.3198,-0.3192,-0.3227,-0.3214,-0.3293,-0.3281,-0.3266,-0.3216,-0.3156,-0.3256,-0.3042,-0.3035,-0.2958,-0.2905,-0.2714,-0.2503,-0.2937,-0.2934,-0.2932,0,-0.2793,-0.2824,-0.286,-0.2924,-0.2939,-0.2972,-0.2996,-0.3037,-0.3054,-0.3073,-0.3083,-0.3101,-0.3094,-0.3158,-0.3071,-0.3119,-0.306,-0.303,-0.302,-0.2954,-0.2947,-0.2571,-0.2454,-0.2902,-0.2904,-0.2906,-0.2908,0,-0.2665,-0.2747,-0.276,-0.2786,-0.2877,-0.2893,-0.2932,-0.2974,-0.2973,-0.2975,-0.2956,-0.296,-0.2949,-0.291,-0.2919,-0.2955,-0.2793,-0.2826,-0.2711,-0.2705,-0.2496,-0.2477,-0.2719,-0.2719,-0.272,-0.2721,-0.2721,0,-0.2585,-0.2589,-0.2696,-0.2695,-0.2672,-0.2782,-0.2753,-0.2798,-0.2826,-0.2787,-0.2866,-0.2844,-0.2884,-0.2834,-0.2831,-0.2717,-0.2715,-0.2678,-0.2637,-0.2494,-0.2478,-0.2805,-0.2818,-0.2712,-0.2714,-0.2716,-0.2717,0,-0.2447,-0.2535,-0.2525,-0.26,-0.2616,-0.2589,-0.2649,-0.263,-0.2682,-0.2642,-0.264,-0.2697,-0.2646,-0.2669,-0.2585,-0.2578,-0.2495,-0.2449,-0.2282,-0.2228,-0.2463,-0.248,-0.2257,-0.2253,-0.225,-0.2247,-0.2244,0,-0.2383,-0.2369,-0.2413,-0.2403,-0.2435,-0.2432,-0.244,-0.2527,-0.2523,-0.2556,-0.2522,-0.2495,-0.2454,-0.2332,-0.23,-0.2209,-0.2351,-0.1994,-0.2058,-0.2429,-0.2411,-0.2433,-0.2453,-0.1761,-0.1755,-0.175,-0.1746,0,-0.2214,-0.2236,-0.2234,-0.2218,-0.2221,-0.2215,-0.2244,-0.2229,-0.2327,-0.2315,-0.2294,-0.226,-0.2171,-0.2013,-0.1936,-0.1885,-0.2008,-0.189,-0.225,-0.1949,-0.1954,-0.1942,-0.1978,-0.1701,-0.1706,-0.1709,-0.1712,-0.1713,-0.2062,-0.2019,-0.203,-0.2002,-0.201,-0.2,-0.1951,-0.2016,-0.1995,-0.1974,-0.2038,-0.1918,-0.1887,-0.1661,-0.159,-0.1548,-0.1693,-0.1636,-0.1653,-0.1674,-0.1697,-0.1701,-0.1401,-0.1403,-0.1406,-0.1408,-0.141,0,-0.186,-0.1852,-0.1819,-0.1793,-0.1747,-0.1815,-0.1814,-0.1754,-0.1706,-0.1719,-0.1679,-0.1439,-0.1329,-0.1323,-0.1175,-0.1163,-0.1174,-0.1136,-0.1146,-0.1188,-0.1227,-0.1231,-0.0808,-0.0807,-0.0805,-0.0804,0,0,-0.1753,-0.1667,-0.1667,-0.1539,-0.153,-0.1423,-0.1395,-0.1348,-0.1318,-0.1214,-0.1147,-0.1226,-0.123,-0.1002,-0.0967,-0.086,-0.1019,-0.0818,-0.129,-0.1339,-0.1376,-0.1491,-0.1542,0,0,0,0,0]},{"header":{"parameterUnit":"m.s-1","parameterCategory":2,"la1":30.2991,"la2":30.254,"lo1":-89.0895,"lo2":-89.0444,"dy":0.0017,"dx":0.0017,"nx":28,"ny":28,"refTime":"2025-03-17T21:00:00:Z","depth":"2","parameterNumber":3,"parameterNumberName":"V-component_of_CURRENTS"},"data":[0,0,0,0,0,0,0,0,0,0,0,0,0,0,0,0,0,0,0,0,0,0,0,0,0,0,0,0,0,0,0,0,0,0,0,0,0,0,0,0,0,0,0,0,0,0,0,0,0,0,0,0,0,0,0,0,0,0,-0.036,-0.0358,0,-0.019,-0.0188,-0.0186,-0.006,-0.0059,-0.0058,-0.0057,0.0132,0.0135,0.0139,0,0,0,0,0,0,0,0,0,0,0,0,0,-0.0513,-0.0511,-0.0361,-0.0358,-0.0356,-0.019,-0.0188,-0.0186,-0.0061,-0.0059,-0.0057,-0.0056,0.0131,0.0135,0.014,0,0,0,0,0,0,0,0,0,0,0,0,0,-0.0408,-0.0511,-0.0361,-0.0272,-0.0262,-0.019,-0.0188,-0.0185,-0.0061,-0.0059,-0.0057,-0.0055,0.0129,0.0135,0.014,0.0136,0,0,0.0158,0.016,0,0,0,0,0,0,0,0,-0.0414,-0.0402,-0.0287,-0.0278,-0.0266,-0.0142,-0.0172,-0.0076,-0.0061,-0.014,-0.0057,-0.0054,0.0042,0.0055,0.0079,0.0145,0.0153,0.0158,0.0162,0.0164,0.0166,0,0,0,0,0,0,0,-0.0421,-0.0409,-0.0295,-0.0285,-0.0272,-0.0217,-0.0201,-0.0153,-0.0064,-0.0133,-0.0123,-0.01,0.0048,0.0073,0.0084,0.0155,0.0158,0.0163,0.0166,0.0169,0.0357,0.0358,0,0,0,0,0,0,-0.0443,-0.0416,-0.0301,-0.029,-0.0334,-0.0216,-0.0198,-0.0186,-0.0064,-0.0043,-0.0102,-0.0095,0.0062,0.0078,0.0091,0.0152,0.0164,0.0169,0.0172,0.0355,0.0357,0.0359,0,0,0,0,0,0,-0.0447,-0.0435,-0.0308,-0.0346,-0.0326,-0.0216,-0.0203,-0.0184,-0.0144,-0.0041,-0.0019,-0.0081,0.0065,0.0083,0.0148,0.0158,0.0172,0.0177,0.0353,0.0356,0.0358,0.0234,0,0,0,0,0,0,-0.0453,-0.0438,-0.0437,-0.0349,-0.0325,-0.0264,-0.0204,-0.0182,-0.0133,-0.0122,-0.0016,0.0003,0.0068,0.0139,0.0154,0.0166,0.0181,0.0351,0.0354,0.0357,0.0236,0.0232,0.0229,0,0,0,0,0,-0.0459,-0.0464,-0.0439,-0.0424,-0.0328,-0.0264,-0.0248,-0.0164,-0.0135,-0.0121,-0.0046,0.0,0.017,0.0143,0.0161,0.0175,0.035,0.0354,0.0357,0.0238,0.0233,0.0229,0,0,0,0,0,0,-0.0535,-0.0449,-0.0419,-0.04,-0.0338,-0.0242,-0.0224,-0.0172,-0.0104,-0.0093,-0.0,0.0024,0.0088,0.0152,0.0121,0.0246,0.0276,0.0283,0.018,0.0176,0.0172,0.0166,0.0186,0,0,0,0,0,-0.0554,-0.0533,-0.0447,-0.0435,-0.0409,-0.0323,-0.0287,-0.0231,-0.0158,-0.0125,-0.0046,0.0043,0.0114,0.0158,0.023,0.028,0.0327,0.0313,0.0308,0.0304,0.0317,0.0389,0.0391,0.0371,0.0371,0.037,0,0,-0.0577,-0.0532,-0.0517,-0.0449,-0.0399,-0.0365,-0.0297,-0.0249,-0.0209,-0.0119,-0.0049,0.002,0.0123,0.0188,0.0226,0.0244,0.0329,0.0309,0.0304,0.032,0.0393,0.0394,0.0396,0.0373,0.0373,0.0372,0,0,-0.0622,-0.0581,-0.0579,-0.0533,-0.046,-0.0401,-0.0392,-0.0295,-0.024,-0.0174,-0.0093,-0.0013,0.0092,0.0177,0.023,0.0251,0.0298,0.0274,0.0252,0.032,0.0321,0.0323,0.034,0.0345,0.028,0.0279,0.0279,0,-0.0651,-0.0639,-0.0569,-0.0557,-0.0518,-0.0424,-0.0409,-0.0345,-0.0234,-0.0191,-0.016,0.0019,0.0096,0.0192,0.0204,0.024,0.0263,0.0246,0.031,0.0313,0.0317,0.0335,0.0341,0.0274,0.0274,0.0275,0.0276,0,-0.0695,-0.0677,-0.0676,-0.0623,-0.0575,-0.0549,-0.0449,-0.0395,-0.0322,-0.0249,-0.0141,-0.0027,0.0086,0.0122,0.0166,0.0241,0.0239,0.0279,0.0303,0.031,0.033,0.0338,0.0266,0.0268,0.027,0.0271,0,0,-0.0767,-0.0716,-0.0713,-0.0694,-0.0606,-0.0567,-0.0506,-0.0415,-0.037,-0.0256,-0.0188,-0.005,0.0015,0.0082,0.0159,0.0225,0.0252,0.0251,0.0257,0.0235,0.0353,0.039,0.0403,0.0285,0.0287,0.0289,0.0337,0,-0.0817,-0.082,-0.0768,-0.0745,-0.0728,-0.0624,-0.0573,-0.0478,-0.0384,-0.0298,-0.0162,-0.0073,-0.0001,0.0046,0.0124,0.0223,0.0278,0.0233,0.0382,0.0386,0.0391,0.0417,0.0373,0.0417,0.0346,0.0347,0.0348,0,-0.0871,-0.0858,-0.0862,-0.079,-0.0773,-0.0745,-0.0636,-0.0575,-0.044,-0.0367,-0.0249,-0.0149,-0.0024,0.0033,0.0211,0.0168,0.0254,0.033,0.0334,0.0427,0.0442,0.0415,0.0437,0.0364,0.0363,0.0362,0.0361,0,-0.0947,-0.0912,-0.0919,-0.0897,-0.0812,-0.0786,-0.073,-0.0605,-0.0543,-0.0414,-0.0358,-0.02,-0.0109,0.0026,0.0203,0.0193,0.0382,0.0394,0.0509,0.051,0.0539,0.054,0.0524,0.0524,0.0524,0.0523,0.0523,0,-0.1012,-0.1007,-0.0961,-0.0961,-0.0945,-0.0858,-0.0815,-0.0734,-0.0622,-0.0547,-0.0405,-0.0303,-0.0105,0.004,0.0176,0.0373,0.037,0.0515,0.0544,0.0492,0.0489,0.0513,0.0511,0.0525,0.0525,0.0525,0.0524,0,-0.1083,-0.1065,-0.1059,-0.1001,-0.0985,-0.097,-0.0879,-0.0839,-0.073,-0.0628,-0.059,-0.0387,-0.0192,0.0005,0.023,0.0349,0.0524,0.0597,0.05,0.0519,0.0595,0.0587,0.0703,0.0705,0.0707,0.0709,0.071,0,-0.1119,-0.113,-0.1101,-0.1103,-0.1082,-0.1046,-0.1017,-0.0907,-0.0849,-0.0656,-0.061,-0.0405,-0.0213,0.0111,0.0337,0.0568,0.0588,0.0655,0.0663,0.0607,0.0622,0.0611,0.0601,0.0622,0.0623,0.0623,0.0623,0,-0.1165,-0.1162,-0.1159,-0.1171,-0.1162,-0.1133,-0.1079,-0.1051,-0.09,-0.0777,-0.0583,-0.0422,-0.0105,0.0163,0.0451,0.0581,0.061,0.0671,0.0664,0.0594,0.0539,0.0551,0.0542,0.0626,0.0626,0.0626,0.0626,0.0626,-0.1188,-0.1205,-0.1209,-0.1215,-0.1215,-0.12,-0.1168,-0.1074,-0.0956,-0.0733,-0.0585,-0.0296,-0.0087,0.0355,0.0534,0.069,0.0697,0.0729,0.0724,0.072,0.0714,0.0666,0.0772,0.0773,0.0773,0.0774,0.0774,0,-0.12,-0.122,-0.124,-0.1251,-0.1263,-0.1244,-0.1184,-0.1112,-0.0955,-0.072,-0.0485,-0.0188,0.0126,0.0349,0.0603,0.0751,0.0721,0.0764,0.0688,0.0684,0.0681,0.0669,0.0717,0.0718,0.0718,0.0718,0,0,-0.1205,-0.1232,-0.1245,-0.1275,-0.1287,-0.1264,-0.1226,-0.1087,-0.091,-0.0657,-0.0414,-0.0117,0.0147,0.0318,0.0482,0.0607,0.0601,0.0611,0.0638,0.052,0.0515,0.0641,0.0618,0,0,0,0,0]}],[{"header":{"parameterUnit":"m.s-1","parameterCategory":2,"la1":30.2991,"la2":30.254,"lo1":-89.0895,"lo2":-89.0444,"dy":0.0017,"dx":0.0017,"nx":28,"ny":28,"refTime":"2025-03-17T21:00:00:Z","depth":"4","parameterNumber":2,"parameterNumberName":"U-component_of_CURRENTS"},"data":[0,0,0,0,0,0,0,0,0,0,0,0,0,0,0,0,0,0,0,0,0,0,0,0,0,0,0,0,0,0,0,0,0,0,0,0,0,0,0,0,0,0,0,0,0,0,0,0,0,0,0,0,0,0,0,0,0,0,-0.1501,-0.1502,0,-0.1563,-0.1564,-0.1565,-0.1579,-0.1578,-0.1578,-0.1578,-0.1675,-0.1678,-0.168,0,0,0,0,0,0,0,0,0,0,0,0,0,-0.1408,-0.1409,-0.1501,-0.1502,-0.1503,-0.1563,-0.1564,-0.1565,-0.1579,-0.1578,-0.1578,-0.1578,-0.1674,-0.1677,-0.1681,0,0,0,0,0,0,0,0,0,0,0,0,0,-0.1455,-0.141,-0.1501,-0.1518,-0.152,-0.1563,-0.1564,-0.1565,-0.1579,-0.1578,-0.1578,-0.1578,-0.1673,-0.1677,-0.1681,-0.1716,0,0,-0.1694,-0.1696,0,0,0,0,0,0,0,0,-0.1453,-0.1459,-0.1515,-0.1517,-0.152,-0.1564,-0.1567,-0.1618,-0.1579,-0.1555,-0.1578,-0.1577,-0.1643,-0.1649,-0.1659,-0.1721,-0.1725,-0.1695,-0.1697,-0.1699,-0.17,0,0,0,0,0,0,0,-0.1449,-0.1456,-0.1524,-0.1516,-0.1519,-0.1528,-0.1534,-0.1576,-0.16,-0.1557,-0.1559,-0.1568,-0.1644,-0.1655,-0.1662,-0.1727,-0.1695,-0.1698,-0.1701,-0.1703,-0.1837,-0.1838,0,0,0,0,0,0,-0.1445,-0.1453,-0.1522,-0.1526,-0.1486,-0.153,-0.1537,-0.1549,-0.1599,-0.1606,-0.1569,-0.1569,-0.1648,-0.1657,-0.1665,-0.1735,-0.1699,-0.1703,-0.1706,-0.1836,-0.1838,-0.1839,0,0,0,0,0,0,-0.1443,-0.1451,-0.1519,-0.1492,-0.1501,-0.1532,-0.1546,-0.1551,-0.1594,-0.1607,-0.1615,-0.1611,-0.1648,-0.1659,-0.1734,-0.1738,-0.1705,-0.1709,-0.1835,-0.1837,-0.1838,-0.186,0,0,0,0,0,0,-0.144,-0.145,-0.1469,-0.1492,-0.1503,-0.1558,-0.1547,-0.1552,-0.16,-0.1601,-0.1646,-0.1652,-0.1648,-0.1728,-0.1739,-0.1744,-0.1712,-0.1834,-0.1836,-0.1838,-0.1858,-0.1862,-0.1865,0,0,0,0,0,-0.1436,-0.1461,-0.1469,-0.1478,-0.1524,-0.1559,-0.1566,-0.1585,-0.1603,-0.1623,-0.1664,-0.1653,-0.1745,-0.1734,-0.1746,-0.1752,-0.1833,-0.1835,-0.1837,-0.1856,-0.1861,-0.1865,0,0,0,0,0,0,-0.1424,-0.1465,-0.1475,-0.1509,-0.1539,-0.1563,-0.1593,-0.1612,-0.1662,-0.1679,-0.1691,-0.1701,-0.177,-0.1765,-0.1752,-0.1794,-0.1778,-0.1783,-0.1788,-0.1793,-0.1797,-0.1794,-0.1716,0,0,0,0,0,-0.1433,-0.1467,-0.1497,-0.1528,-0.1549,-0.1582,-0.1607,-0.1624,-0.1664,-0.1686,-0.172,-0.1751,-0.1783,-0.1794,-0.1833,-0.1867,-0.186,-0.187,-0.1874,-0.1877,-0.1883,-0.1878,-0.1881,-0.1846,-0.1846,-0.1846,0,0,-0.1429,-0.1465,-0.1479,-0.1529,-0.1559,-0.1592,-0.1597,-0.1648,-0.1678,-0.1692,-0.1763,-0.1793,-0.1806,-0.1843,-0.1867,-0.1838,-0.1886,-0.188,-0.1883,-0.1887,-0.1881,-0.1884,-0.1887,-0.1848,-0.1847,-0.1847,0,0,-0.1445,-0.1483,-0.1516,-0.155,-0.1609,-0.1628,-0.1653,-0.1703,-0.173,-0.1801,-0.1811,-0.1843,-0.1909,-0.189,-0.1893,-0.1943,-0.193,-0.1956,-0.1947,-0.1943,-0.1945,-0.1947,-0.1947,-0.1949,-0.1927,-0.1928,-0.1928,0,-0.1443,-0.1488,-0.1529,-0.1574,-0.1604,-0.1649,-0.1684,-0.172,-0.1788,-0.1811,-0.1831,-0.1906,-0.1919,-0.1926,-0.1935,-0.1949,-0.1955,-0.1927,-0.1946,-0.1948,-0.195,-0.1949,-0.1951,-0.1929,-0.1929,-0.1929,-0.1928,0,-0.1476,-0.152,-0.155,-0.1615,-0.1652,-0.1698,-0.1744,-0.1791,-0.184,-0.1866,-0.1928,-0.1945,-0.1974,-0.1971,-0.1974,-0.198,-0.1986,-0.1974,-0.193,-0.1954,-0.1953,-0.1954,-0.1931,-0.193,-0.193,-0.193,0,0,-0.1462,-0.155,-0.1568,-0.161,-0.1682,-0.1724,-0.1771,-0.1821,-0.187,-0.1917,-0.1963,-0.1987,-0.2003,-0.2007,-0.1999,-0.1975,-0.1991,-0.1981,-0.198,-0.1975,-0.1998,-0.1827,-0.1812,-0.199,-0.199,-0.1991,-0.1993,0,-0.1479,-0.1559,-0.1596,-0.1677,-0.1721,-0.1769,-0.1819,-0.1872,-0.1919,-0.198,-0.1976,-0.2036,-0.2013,-0.2038,-0.2013,-0.2021,-0.1997,-0.1993,-0.1982,-0.1982,-0.182,-0.1807,-0.1992,-0.1994,-0.1994,-0.1995,-0.1995,0,-0.1497,-0.156,-0.1629,-0.1726,-0.1754,-0.1809,-0.1899,-0.1948,-0.2009,-0.2047,-0.2066,-0.2092,-0.2084,-0.2069,-0.2046,-0.2054,-0.2034,-0.2015,-0.2014,-0.1845,-0.1811,-0.1965,-0.1997,-0.1997,-0.1997,-0.1996,-0.1996,0,-0.1478,-0.1582,-0.1643,-0.1678,-0.179,-0.1841,-0.1904,-0.1975,-0.201,-0.2093,-0.2117,-0.2136,-0.2141,-0.2127,-0.2074,-0.2086,-0.204,-0.2046,-0.1864,-0.1854,-0.2001,-0.1999,-0.2023,-0.2023,-0.2023,-0.2023,-0.2023,0,-0.1467,-0.153,-0.1657,-0.1702,-0.1792,-0.1876,-0.1958,-0.2017,-0.2085,-0.2104,-0.2159,-0.214,-0.2158,-0.2121,-0.2096,-0.1961,-0.205,-0.1858,-0.1831,-0.2012,-0.2011,-0.2002,-0.2,-0.2023,-0.2023,-0.2023,-0.2023,0,-0.1415,-0.1495,-0.1586,-0.1733,-0.1781,-0.1854,-0.1965,-0.2005,-0.2094,-0.2111,-0.2134,-0.215,-0.2089,-0.2066,-0.2028,-0.1947,-0.1873,-0.1802,-0.1995,-0.1982,-0.1699,-0.1699,-0.1626,-0.1619,-0.1614,-0.1609,-0.1606,0,-0.1381,-0.143,-0.1594,-0.1637,-0.1706,-0.1817,-0.1867,-0.1988,-0.2007,-0.2069,-0.2049,-0.2029,-0.2009,-0.181,-0.1824,-0.1746,-0.1708,-0.169,-0.1691,-0.1671,-0.1654,-0.1662,-0.1668,-0.1597,-0.1596,-0.1594,-0.1593,0,-0.1321,-0.1398,-0.1463,-0.1554,-0.1631,-0.17,-0.1786,-0.1793,-0.1897,-0.1984,-0.1891,-0.1831,-0.1741,-0.1679,-0.1608,-0.156,-0.1722,-0.1634,-0.1646,-0.1647,-0.1636,-0.1626,-0.1639,-0.1574,-0.1577,-0.1579,-0.158,0,-0.1262,-0.1283,-0.1369,-0.1432,-0.1517,-0.1548,-0.1624,-0.1633,-0.1671,-0.1751,-0.1705,-0.1678,-0.1706,-0.1577,-0.1521,-0.1445,-0.1428,-0.1403,-0.1427,-0.1447,-0.138,-0.1339,-0.1148,0,0,0,0,0,-0.118,-0.1179,-0.1231,-0.1292,-0.1372,-0.142,-0.1535,-0.161,-0.1715,-0.1595,-0.1647,-0.1551,-0.1434,-0.143,-0.1307,-0.1445,-0.1447,-0.13,-0.1437,-0.1472,-0.1493,-0.1426,0,0,0,0,0,0,-0.1111,-0.1152,-0.1175,-0.1156,-0.1168,-0.124,-0.1309,-0.1395,-0.1347,-0.1445,-0.1379,-0.1443,-0.1347,-0.1448,-0.126,-0.126,-0.1314,-0.13,-0.1296,-0.146,-0.1479,-0.1496,-0.1434,0,0,0,0,0]},{"header":{"parameterUnit":"m.s-1","parameterCategory":2,"la1":30.2991,"la2":30.254,"lo1":-89.0895,"lo2":-89.0444,"dy":0.0017,"dx":0.0017,"nx":28,"ny":28,"refTime":"2025-03-17T21:00:00:Z","depth":"4","parameterNumber":3,"parameterNumberName":"V-component_of_CURRENTS"},"data":[0,0,0,0,0,0,0,0,0,0,0,0,0,0,0,0,0,0,0,0,0,0,0,0,0,0,0,0,0,0,0,0,0,0,0,0,0,0,0,0,0,0,0,0,0,0,0,0,0,0,0,0,0,0,0,0,0,0,-0.0517,-0.0516,0,-0.0489,-0.049,-0.049,-0.05,-0.05,-0.05,-0.05,-0.0491,-0.0491,-0.049,0,0,0,0,0,0,0,0,0,0,0,0,0,-0.055,-0.055,-0.0517,-0.0516,-0.0515,-0.0489,-0.049,-0.049,-0.05,-0.05,-0.05,-0.05,-0.0491,-0.0491,-0.049,0,0,0,0,0,0,0,0,0,0,0,0,0,-0.0536,-0.055,-0.0517,-0.0513,-0.0512,-0.0489,-0.049,-0.049,-0.05,-0.05,-0.05,-0.05,-0.0491,-0.0491,-0.049,-0.0483,0,0,-0.0488,-0.0488,0,0,0,0,0,0,0,0,-0.0536,-0.0535,-0.0515,-0.0513,-0.0512,-0.0494,-0.0497,-0.0486,-0.05,-0.051,-0.05,-0.05,-0.049,-0.0489,-0.0491,-0.0482,-0.0482,-0.0488,-0.0488,-0.0488,-0.0488,0,0,0,0,0,0,0,-0.0537,-0.0536,-0.0512,-0.0514,-0.0512,-0.0503,-0.0502,-0.0496,-0.0504,-0.0509,-0.0509,-0.0497,-0.049,-0.0492,-0.0491,-0.0482,-0.0488,-0.0488,-0.0488,-0.0487,-0.0491,-0.0491,0,0,0,0,0,0,-0.0531,-0.0537,-0.0512,-0.051,-0.0519,-0.0502,-0.0501,-0.0504,-0.0503,-0.0502,-0.0497,-0.0497,-0.0493,-0.0492,-0.0491,-0.0493,-0.0488,-0.0487,-0.0487,-0.0491,-0.0491,-0.0492,0,0,0,0,0,0,-0.0532,-0.053,-0.0513,-0.0518,-0.0514,-0.0501,-0.0504,-0.0503,-0.0506,-0.0493,-0.0493,-0.05,-0.0493,-0.0491,-0.0478,-0.0493,-0.0487,-0.0487,-0.049,-0.0491,-0.0491,-0.0492,0,0,0,0,0,0,-0.0534,-0.0531,-0.0534,-0.0518,-0.0514,-0.0512,-0.0503,-0.0502,-0.0496,-0.0497,-0.0495,-0.0495,-0.0493,-0.0479,-0.0478,-0.0492,-0.0486,-0.049,-0.049,-0.0491,-0.0491,-0.0492,-0.0493,0,0,0,0,0,-0.0535,-0.0542,-0.0535,-0.0531,-0.0518,-0.0512,-0.051,-0.0504,-0.0496,-0.0506,-0.0489,-0.0495,-0.0484,-0.0478,-0.0477,-0.0491,-0.0489,-0.049,-0.0491,-0.0491,-0.0492,-0.0493,0,0,0,0,0,0,-0.0561,-0.0542,-0.0535,-0.0536,-0.0527,-0.0512,-0.0516,-0.0504,-0.0499,-0.0499,-0.0486,-0.0485,-0.0482,-0.0484,-0.0478,-0.0497,-0.0494,-0.0494,-0.0494,-0.0495,-0.0496,-0.0472,-0.0486,0,0,0,0,0,-0.0564,-0.0569,-0.0546,-0.0551,-0.0546,-0.053,-0.0525,-0.0519,-0.0507,-0.0506,-0.0501,-0.0496,-0.0485,-0.0487,-0.0483,-0.0486,-0.0436,-0.05,-0.0501,-0.0501,-0.0482,-0.041,-0.0401,-0.0495,-0.0495,-0.0495,0,0,-0.0579,-0.0565,-0.0571,-0.0557,-0.0551,-0.0546,-0.053,-0.0529,-0.052,-0.0505,-0.0502,-0.0495,-0.0484,-0.0487,-0.0488,-0.0491,-0.0449,-0.0503,-0.0503,-0.0483,-0.041,-0.04,-0.0391,-0.0495,-0.0495,-0.0495,0,0,-0.0604,-0.0597,-0.0605,-0.0596,-0.0578,-0.0565,-0.0563,-0.0549,-0.0542,-0.053,-0.0515,-0.0501,-0.0505,-0.049,-0.0482,-0.0485,-0.0451,-0.051,-0.0499,-0.043,-0.0421,-0.0412,-0.0329,-0.0313,-0.0517,-0.0517,-0.0517,0,-0.0618,-0.0623,-0.0608,-0.0606,-0.0594,-0.0572,-0.0572,-0.0559,-0.0543,-0.0525,-0.0534,-0.0496,-0.0498,-0.0463,-0.0477,-0.0484,-0.0436,-0.0494,-0.0427,-0.0418,-0.0409,-0.0326,-0.0308,-0.0517,-0.0517,-0.0517,-0.0517,0,-0.0642,-0.0644,-0.0649,-0.0636,-0.0625,-0.0625,-0.0594,-0.0585,-0.0569,-0.0546,-0.0511,-0.0495,-0.0466,-0.0483,-0.0482,-0.0434,-0.0416,-0.0429,-0.0417,-0.0399,-0.0313,-0.0294,-0.0517,-0.0517,-0.0517,-0.0517,0,0,-0.0676,-0.0667,-0.067,-0.0664,-0.0638,-0.0631,-0.0609,-0.0575,-0.0542,-0.0529,-0.0476,-0.047,-0.0448,-0.0436,-0.0432,-0.0389,-0.0295,-0.0392,-0.0388,-0.0295,-0.0123,-0.0178,-0.0163,-0.0297,-0.0295,-0.0292,-0.0086,0,-0.0697,-0.0707,-0.0688,-0.0689,-0.0687,-0.065,-0.0626,-0.0589,-0.0549,-0.0497,-0.0453,-0.0414,-0.0433,-0.0417,-0.037,-0.0315,-0.0247,-0.0348,-0.0167,-0.016,-0.02,-0.0144,-0.0283,-0.0071,-0.0067,-0.0064,-0.0061,0,-0.0719,-0.0719,-0.0735,-0.0703,-0.0697,-0.0693,-0.0632,-0.0605,-0.052,-0.0483,-0.0418,-0.0375,-0.0301,-0.0324,-0.0176,-0.0241,-0.0175,-0.013,-0.0121,-0.0155,-0.0181,-0.0097,-0.0027,-0.0029,-0.0032,-0.0034,-0.0036,0,-0.075,-0.0743,-0.0758,-0.0753,-0.072,-0.0711,-0.0685,-0.0612,-0.0573,-0.0467,-0.042,-0.0314,-0.026,-0.0159,-0.0083,-0.0115,0.0086,0.006,0.0092,0.009,0.0079,0.0067,0.0194,0.0194,0.0193,0.0193,0.0192,0,-0.0769,-0.078,-0.0781,-0.0791,-0.079,-0.0745,-0.0715,-0.0666,-0.0576,-0.0511,-0.042,-0.0341,-0.0221,-0.0105,-0.003,0.0089,0.0142,0.0125,0.0144,0.0072,0.0057,0.0093,0.0079,0.0201,0.0199,0.0197,0.0196,0,-0.0801,-0.0809,-0.0826,-0.0815,-0.0815,-0.0814,-0.0761,-0.0721,-0.0632,-0.0536,-0.0501,-0.0344,-0.0194,-0.0068,0.0108,0.0147,0.0268,0.0298,0.0238,0.0245,0.0224,0.0207,0.0388,0.0388,0.0388,0.0388,0.0387,0,-0.0814,-0.0834,-0.0863,-0.088,-0.0885,-0.0873,-0.0858,-0.0774,-0.0715,-0.0538,-0.0487,-0.0319,-0.0212,0.0032,0.0133,0.0317,0.0306,0.0387,0.0286,0.0247,0.0248,0.0231,0.0214,0.0387,0.0387,0.0387,0.0387,0,-0.0833,-0.0862,-0.088,-0.0924,-0.0937,-0.0923,-0.0886,-0.0845,-0.0714,-0.0641,-0.0443,-0.0297,-0.0124,0.0035,0.0169,0.0284,0.0342,0.0386,0.0386,0.0292,0.0249,0.0245,0.0229,0.0387,0.0387,0.0387,0.0387,0,-0.0849,-0.0875,-0.0914,-0.094,-0.0969,-0.0949,-0.0925,-0.0821,-0.0746,-0.0543,-0.0483,-0.0274,-0.0147,0.0021,0.0145,0.0249,0.0258,0.0274,0.028,0.0281,0.0149,0.0071,0.0201,0,0,0,0,0,-0.0845,-0.0873,-0.0913,-0.0939,-0.0969,-0.0977,-0.0924,-0.0878,-0.0759,-0.0625,-0.054,-0.037,-0.0144,-0.004,0.0058,0.0096,0.0239,0.0208,0.025,0.0385,0.0385,0.0237,0,0,0,0,0,0,-0.0841,-0.089,-0.0909,-0.093,-0.0951,-0.0959,-0.0932,-0.0854,-0.0757,-0.0628,-0.0506,-0.0385,-0.0179,-0.021,0.0045,0.008,0.0112,0.0327,0.0328,0.0385,0.0385,0.0385,0.0233,0,0,0,0,0]}]]